| time (UTC) | temp F | wind direction | speed knots | gust knots | rain 1hr in | rain 24hr in | rain mn in | humidity % | barometer mb |
| 20260506134725 | 47 | 241 | 12.2 | 18.2 | 0.00 | 0.00 | 0.00 | 47 | 1012.1 |
| 20260506132725 | 48 | 239 | 13.0 | 21.7 | 0.00 | 0.00 | 0.00 | 46 | 1012.0 |
| 20260506130724 | 47 | 239 | 13.9 | 20.0 | 0.00 | 0.00 | 0.00 | 48 | 1012.0 |
| 20260506124724 | 47 | 244 | 13.0 | 20.9 | 0.00 | 0.00 | 0.00 | 48 | 1012.0 |
| 20260506122724 | 47 | 241 | 14.8 | 21.7 | 0.00 | 0.00 | 0.00 | 47 | 1011.9 |
| 20260506120725 | 47 | 247 | 13.9 | 25.2 | 0.00 | 0.00 | 0.00 | 48 | 1011.8 |
| 20260506114725 | 46 | 254 | 14.8 | 20.9 | 0.00 | 0.00 | 0.00 | 46 | 1011.6 |
| 20260506112725 | 46 | 250 | 15.6 | 23.5 | 0.00 | 0.00 | 0.00 | 51 | 1011.6 |
| 20260506110724 | 45 | 253 | 13.9 | 23.5 | 0.00 | 0.00 | 0.00 | 53 | 1011.4 |
| 20260506104725 | 44 | 253 | 15.6 | 22.6 | 0.00 | 0.00 | 0.00 | 53 | 1011.2 |
| 20260506102726 | 43 | 259 | 14.8 | 24.3 | 0.00 | 0.00 | 0.00 | 54 | 1011.0 |
| 20260506100727 | 43 | 262 | 17.4 | 25.2 | 0.00 | 0.00 | 0.00 | 56 | 1010.9 |
| 20260506094727 | 43 | 263 | 16.5 | 23.5 | 0.00 | 0.00 | 0.00 | 57 | 1010.6 |
| 20260506092726 | 43 | 260 | 13.9 | 21.7 | 0.00 | 0.00 | 0.00 | 58 | 1010.4 |
| 20260506090726 | 43 | 251 | 14.8 | 20.9 | 0.00 | 0.00 | 0.00 | 59 | 1010.3 |
| 20260506084727 | 43 | 249 | 14.8 | 22.6 | 0.00 | 0.00 | 0.00 | 58 | 1010.1 |
| 20260506082727 | 43 | 260 | 14.8 | 21.7 | 0.00 | 0.00 | 0.00 | 59 | 1009.9 |
| 20260506080726 | 42 | 259 | 13.9 | 21.7 | 0.00 | 0.00 | 0.00 | 59 | 1009.7 |
| 20260506072727 | 41 | 258 | 13.9 | 20.9 | 0.00 | 0.00 | 0.00 | 61 | 1009.3 |
| 20260506070726 | 42 | 250 | 13.9 | 20.9 | 0.00 | 0.00 | 0.00 | 60 | 1009.1 |
| 20260506060725 | 40 | 270 | 13.0 | 21.7 | 0.00 | 0.00 | 0.00 | 64 | 1008.7 |
| 20260506050726 | 39 | 270 | 12.2 | 20.9 | 0.00 | 0.00 | 0.00 | 66 | 1008.2 |
| 20260506044726 | 39 | 272 | 13.9 | 21.7 | 0.00 | 0.00 | 0.00 | 65 | 1008.0 |
| 20260506042725 | 39 | 273 | 11.3 | 20.9 | 0.00 | 0.00 | 0.00 | 64 | 1007.8 |
| 20260506040725 | 39 | 279 | 12.2 | 24.3 | 0.00 | 0.00 | 0.00 | 64 | 1007.6 |
| 20260506034726 | 39 | 277 | 10.4 | 20.0 | 0.00 | 0.00 | 0.00 | 66 | 1007.3 |
| 20260506032725 | 39 | 280 | 12.2 | 20.0 | 0.00 | 0.00 | 0.00 | 65 | 1007.2 |
| 20260506030725 | 39 | 274 | 12.2 | 19.1 | 0.00 | 0.00 | 0.00 | 66 | 1007.1 |
| 20260506024725 | 39 | 276 | 10.4 | 21.7 | 0.00 | 0.00 | 0.00 | 65 | 1007.0 |
| 20260506022725 | 39 | 277 | 11.3 | 18.2 | 0.00 | 0.00 | 0.00 | 64 | 1006.8 |
| 20260506020725 | 39 | 275 | 11.3 | 22.6 | 0.00 | 0.00 | 0.00 | 63 | 1006.8 |
| 20260506014725 | 39 | 280 | 8.7 | 16.5 | 0.00 | 0.00 | 0.00 | 64 | 1006.6 |
| 20260506012725 | 39 | 280 | 11.3 | 19.1 | 0.00 | 0.00 | 0.00 | 60 | 1006.5 |
| 20260506010725 | 40 | 280 | 10.4 | 21.7 | 0.00 | 0.00 | 0.00 | 62 | 1006.3 |
| 20260506004724 | 40 | 281 | 10.4 | 16.5 | 0.00 | 0.00 | 0.00 | 61 | 1006.1 |
| 20260506002725 | 40 | 283 | 9.6 | 17.4 | 0.00 | 0.00 | 0.00 | 61 | 1006.0 |
| 20260506000725 | 40 | 290 | 9.6 | 15.6 | 0.00 | 0.00 | 0.00 | 59 | 1005.8 |
| 20260505234724 | 41 | 291 | 11.3 | 20.0 | 0.00 | 0.00 | 0.00 | 59 | 1005.6 |
| 20260505232725 | 41 | 278 | 11.3 | 17.4 | 0.00 | 0.00 | 0.00 | 66 | 1005.5 |
| 20260505230725 | 41 | 277 | 8.7 | 13.9 | 0.00 | 0.00 | 0.00 | 67 | 1005.4 |
| 20260505224724 | 41 | 272 | 7.8 | 14.8 | 0.00 | 0.00 | 0.00 | 67 | 1005.4 |
| 20260505222724 | 41 | 281 | 7.0 | 12.2 | 0.00 | 0.00 | 0.00 | 62 | 1005.3 |
| 20260505220725 | 42 | 287 | 7.8 | 13.0 | 0.00 | 0.00 | 0.00 | 57 | 1005.2 |
| 20260505214724 | 42 | 283 | 7.0 | 11.3 | 0.00 | 0.00 | 0.00 | 58 | 1005.1 |
| 20260505212724 | 42 | 284 | 5.2 | 10.4 | 0.00 | 0.00 | 0.00 | 58 | 1004.9 |
| 20260505210723 | 42 | 285 | 8.7 | 13.0 | 0.00 | 0.00 | 0.00 | 55 | 1004.8 |
| 20260505204724 | 43 | 284 | 7.8 | 13.9 | 0.00 | 0.00 | 0.00 | 57 | 1004.6 |
| 20260505202725 | 43 | 274 | 8.7 | 14.8 | 0.00 | 0.00 | 0.00 | 63 | 1004.4 |
| 20260505200723 | 43 | 263 | 10.4 | 17.4 | 0.00 | 0.00 | 0.00 | 61 | 1004.3 |
| 20260505194723 | 43 | 250 | 14.8 | 21.7 | 0.00 | 0.00 | 0.00 | 56 | 1004.2 |
| 20260505192724 | 44 | 252 | 12.2 | 20.9 | 0.00 | 0.00 | 0.00 | 53 | 1004.1 |
| 20260505190723 | 44 | 247 | 11.3 | 17.4 | 0.00 | 0.00 | 0.00 | 52 | 1004.0 |
| 20260505184723 | 44 | 248 | 11.3 | 16.5 | 0.00 | 0.05 | 0.00 | 55 | 1004.0 |
| 20260505182723 | 44 | 247 | 11.3 | 18.2 | 0.00 | 0.05 | 0.00 | 55 | 1003.8 |
| 20260505180723 | 44 | 250 | 10.4 | 15.6 | 0.00 | 0.05 | 0.00 | 55 | 1003.8 |
| 20260505174723 | 44 | 241 | 10.4 | 16.5 | 0.00 | 0.06 | 0.00 | 54 | 1003.6 |
| 20260505172722 | 45 | 245 | 12.2 | 19.1 | 0.00 | 0.06 | 0.00 | 54 | 1003.7 |
| 20260505170722 | 45 | 250 | 13.9 | 19.1 | 0.00 | 0.06 | 0.00 | 52 | 1003.6 |
| 20260505164723 | 46 | 246 | 14.8 | 20.0 | 0.00 | 0.06 | 0.00 | 48 | 1003.6 |
| 20260505162723 | 47 | 247 | 12.2 | 18.2 | 0.00 | 0.06 | 0.00 | 47 | 1003.5 |
| 20260505160723 | 47 | 257 | 13.0 | 22.6 | 0.00 | 0.06 | 0.00 | 51 | 1003.5 |
| 20260505152722 | 47 | 252 | 14.8 | 21.7 | 0.00 | 0.06 | 0.00 | 51 | 1003.4 |
| 20260505150723 | 48 | 255 | 20.0 | 26.9 | 0.00 | 0.06 | 0.00 | 42 | 1003.3 |